Theta_e
340 349 353 352 351 349 350 349 350 350 347 344 341 339 337 336 334 335 337 337 338 337 337 338 337 337 337 337 338 339 340 343 344 347 351 352 352 351 353 354 353 342 346
343 349 353 350 351 349 348 350 349 349 346 342 339 337 337 335 333 334 336 335 335 335 336 337 337 336 336 335 335 336 337 338 340 342 345 350 353 353 352 352 351 349 349
343 350 350 350 351 346 348 348 346 348 344 341 338 336 336 335 333 334 334 333 333 333 333 334 335 335 335 334 334 334 334 334 336 339 344 348 351 354 353 354 353 351 350
345 347 348 349 348 347 349 346 346 345 342 339 337 336 335 330 332 333 332 331 331 331 332 332 332 332 332 332 332 332 333 333 335 337 338 338 348 353 353 352 352 351 351
343 346 351 350 348 349 347 344 344 342 340 338 337 335 331 332 332 332 332 332 333 334 334 334 334 335 336 337 336 334 332 333 335 335 334 337 338 348 351 352 352 351 349
342 345 350 351 349 348 345 341 338 338 340 337 335 333 331 332 332 332 332 333 334 334 336 336 335 335 335 336 336 338 337 334 334 326 327 336 337 347 349 348 349 352 349
342 344 347 350 349 346 342 340 336 335 336 338 334 332 332 332 332 332 332 333 334 334 336 336 334 334 334 334 336 339 338 336 330 331 329 331 335 348 345 347 350 350 347
342 344 347 351 349 345 342 338 335 337 337 336 334 333 332 332 333 333 334 334 334 335 334 334 334 333 334 333 336 339 338 336 334 334 331 333 349 348 345 349 350 348 348
344 345 346 347 348 344 341 337 335 337 337 337 335 333 332 334 335 336 336 336 335 335 334 332 333 333 334 333 336 337 336 336 335 338 336 345 354 352 351 351 349 349 348
345 344 345 348 345 342 337 337 336 337 336 334 332 333 337 338 338 338 338 336 334 333 330 331 332 332 332 331 335 334 337 341 338 336 345 347 352 350 349 349 347 346 345
344 345 345 344 345 343 339 336 336 336 335 335 336 337 336 335 336 338 337 335 332 329 330 330 330 332 333 333 334 334 335 335 334 341 343 351 350 347 346 344 342 339 337
343 344 345 343 343 342 338 339 340 339 338 338 336 336 336 334 331 331 335 335 332 331 332 331 332 334 336 331 329 336 331 333 334 343 341 348 346 342 340 338 336 336 335
344 346 345 345 345 342 339 341 341 341 340 338 338 338 337 333 332 331 333 332 334 332 332 331 332 331 330 330 331 329 331 333 338 341 342 347 343 339 337 336 336 335 334
344 348 348 346 346 345 342 340 341 341 340 338 337 339 339 335 335 332 331 332 332 331 333 333 329 331 331 331 330 329 330 334 338 340 340 346 342 338 336 336 335 334 332
343 346 349 349 349 347 346 342 341 341 339 339 338 338 339 335 335 334 333 331 332 332 331 330 331 331 331 330 331 328 331 334 339 338 338 343 342 339 336 336 335 334 333
342 345 349 350 351 349 347 345 342 342 342 341 338 338 338 337 338 336 333 334 334 332 332 330 329 330 330 331 331 330 332 334 334 337 339 339 344 342 338 337 337 336 336
339 344 350 353 351 351 349 346 344 342 342 340 338 340 339 339 340 339 335 333 335 333 332 333 331 331 330 329 330 331 330 331 331 332 334 338 338 343 341 338 338 338 336
341 342 351 351 352 352 349 347 343 343 343 342 339 339 339 339 340 339 334 335 335 333 333 332 330 329 329 329 330 330 331 331 332 332 332 332 335 335 339 342 339 336 335
342 346 350 354 351 351 352 348 347 347 344 345 344 339 340 339 338 339 335 336 336 332 332 330 332 331 329 329 327 329 330 330 331 330 332 332 333 331 333 341 340 336 336
343 346 351 353 354 355 349 350 345 344 344 342 340 338 339 338 338 339 336 337 335 331 331 333 333 332 329 329 326 326 329 329 330 330 330 330 331 332 332 334 335 333 337
341 344 349 350 353 349 345 343 340 339 339 339 339 339 338 339 339 341 337 336 336 332 334 335 333 332 329 332 327 326 327 330 330 330 330 330 330 331 333 333 333 332 334
339 343 345 347 351 349 344 343 339 340 340 339 338 339 339 339 340 340 341 336 336 331 334 334 334 331 328 331 326 323 319 326 327 329 329 329 331 331 332 336 338 335 334
339 342 344 347 349 350 351 342 342 340 340 336 337 335 338 339 339 341 341 339 337 335 331 335 334 334 328 330 333 324 319 318 327 329 333 331 333 334 333 333 333 334 334
341 342 344 346 348 347 348 347 346 335 333 336 336 335 339 340 339 339 340 339 339 335 340 334 333 333 334 328 332 332 332 331 321 319 331 331 335 334 336 329 329 330 332
343 341 343 346 348 348 348 347 339 339 337 337 338 343 347 343 341 339 340 340 339 336 341 338 337 336 332 330 325 327 331 329 332 327 318 321 324 324 326 328 329 328 331
345 343 342 344 347 348 346 345 344 342 340 335 338 334 335 337 339 341 339 341 344 341 338 337 337 337 337 335 332 332 327 326 323 321 319 322 321 323 324 325 327 326 327
Wind_Speed
15 15 13 11 8 5 5 5 5 7 7 5 5 5 6 6 6 5 6 6 7 6 7 7 7 7 8 7 7 7 6 6 5 5 8 9 11 14 12 18 17 10 11
19 14 11 10 9 6 4 7 6 7 6 5 4 4 5 5 6 5 5 5 6 6 6 7 6 6 6 5 5 6 6 5 3 1 3 7 10 12 10 9 8 12 10
17 14 12 8 9 6 7 7 5 7 6 5 4 3 3 4 4 4 5 5 5 6 6 6 6 6 5 5 5 4 4 4 4 5 8 11 13 12 9 9 9 10 15
12 11 13 11 8 7 7 6 6 6 7 6 4 3 3 3 3 5 5 5 5 5 5 5 5 6 6 5 4 4 4 4 5 7 9 12 14 16 10 9 9 11 13
11 15 13 12 9 8 7 6 5 5 4 5 4 3 3 4 4 4 5 6 6 6 6 5 4 4 6 6 6 4 5 6 7 11 14 12 7 16 13 9 12 11 8
14 15 15 13 10 8 7 5 4 4 5 5 4 3 3 4 4 3 4 5 5 6 7 6 5 5 5 7 8 8 7 8 9 14 13 3 3 16 14 8 2 11 8
11 16 15 12 11 8 7 5 4 4 5 5 4 4 4 3 3 2 1 2 4 5 7 9 8 7 6 6 8 10 8 10 11 14 9 4 8 14 13 8 6 7 7
10 14 14 13 11 9 7 6 5 5 6 5 5 4 4 4 3 3 2 2 2 4 5 5 7 8 8 8 7 9 7 10 13 10 6 10 11 12 12 10 8 9 9
10 11 13 13 11 9 8 8 7 6 7 6 5 4 4 6 7 7 6 4 2 4 5 5 5 6 7 8 6 6 8 11 13 5 8 12 13 11 13 11 12 12 11
10 9 12 13 14 12 12 10 9 8 6 5 6 6 8 11 13 11 10 5 2 2 3 3 4 6 5 6 6 6 9 14 14 11 11 11 15 14 14 14 13 12 11
10 9 8 11 13 11 15 11 9 8 8 9 11 10 11 10 11 13 10 5 2 1 2 2 5 8 9 10 10 10 9 9 9 10 9 17 15 12 13 13 12 11 10
10 10 9 9 9 8 7 13 11 11 11 8 2 3 8 4 6 6 6 9 7 7 9 9 10 13 15 8 9 13 8 6 2 11 10 14 17 11 12 12 12 11 10
10 8 9 7 7 8 7 8 5 5 5 4 2 3 3 3 5 6 5 8 7 11 4 8 7 6 8 6 2 2 4 7 8 8 13 15 14 10 10 11 10 10 8
10 11 10 11 10 8 5 5 5 4 4 4 5 4 1 5 3 3 3 2 4 3 0 2 3 4 4 2 4 7 6 8 8 7 11 16 13 9 9 9 8 7 6
7 10 12 11 10 8 8 5 4 5 5 3 4 5 2 3 2 3 3 4 3 2 3 3 1 2 2 4 4 3 6 4 11 5 7 15 14 9 8 8 8 7 6
7 9 10 12 11 11 9 7 6 4 4 3 4 4 4 4 0 1 3 1 1 3 4 4 4 3 2 2 2 1 2 1 4 11 9 10 14 14 11 8 8 7 7
7 6 7 10 12 11 11 8 7 6 6 5 5 5 6 4 4 5 0 4 1 3 6 2 3 3 4 5 1 3 4 4 3 3 3 9 10 12 12 11 9 8 8
6 2 7 9 12 12 10 9 8 7 5 5 5 6 7 6 4 4 4 2 5 5 3 2 3 3 3 2 2 3 3 4 6 6 6 3 8 9 12 13 12 9 8
5 4 8 10 11 13 12 9 10 7 5 4 4 6 9 9 8 5 5 1 2 4 3 4 2 2 1 4 5 4 4 4 4 9 7 5 4 4 2 13 12 12 12
6 4 8 10 11 12 10 8 8 6 5 5 6 6 8 8 8 5 6 1 3 4 4 2 3 3 4 3 8 3 4 5 4 4 5 6 7 3 5 7 10 11 16
5 5 8 10 11 10 10 10 8 7 6 6 7 7 8 8 8 6 7 4 4 4 3 3 5 5 5 1 6 5 5 6 5 6 6 6 6 9 9 4 6 6 6
5 5 7 9 11 10 8 7 6 6 5 5 7 7 8 9 9 7 6 4 3 4 4 5 4 7 5 1 7 6 6 5 9 8 7 7 9 5 3 1 2 5 6
6 8 9 10 11 11 9 6 3 3 2 6 6 7 8 10 10 9 7 6 3 5 5 6 6 7 8 2 3 7 5 3 1 2 6 5 5 1 5 6 6 8 7
6 7 9 10 9 10 9 7 7 7 6 5 5 8 8 11 10 9 9 8 6 6 5 4 6 7 6 8 5 1 4 6 6 6 2 9 8 9 10 7 8 8 6
5 7 7 9 9 9 9 10 7 9 6 4 6 6 5 5 8 10 9 9 9 7 7 5 7 5 7 6 9 3 4 7 5 7 9 6 6 7 7 8 7 7 5
9 6 6 9 9 10 9 10 9 9 8 5 7 6 7 8 8 8 11 9 7 9 8 7 8 8 8 9 7 7 6 3 6 8 9 8 9 8 6 5 6 8 7
Wind_Direction
97 115 137 142 143 140 127 123 123 139 125 113 93 77 65 58 58 59 62 38 41 33 23 20 24 25 21 20 22 25 36 53 76 109 147 167 196 203 221 207 211 180 153
98 123 136 143 141 145 128 100 90 132 119 102 82 66 54 49 49 51 50 37 22 23 14 15 14 13 16 13 11 6 4 7 9 36 195 192 154 158 166 175 166 176 181
97 113 143 134 138 140 116 109 120 134 131 127 113 85 51 34 46 46 36 23 15 19 14 4 2 359 360 2 354 354 340 328 314 290 265 240 164 146 153 164 176 178 173
117 139 128 145 142 145 132 131 149 142 146 145 134 115 64 56 56 37 29 27 29 29 24 16 2 350 348 340 329 309 296 283 278 273 253 240 159 148 152 158 162 158 174
126 93 116 142 150 138 142 143 151 155 156 151 149 135 114 105 81 63 47 41 40 32 24 22 17 356 341 332 321 301 280 268 260 258 247 228 221 143 154 167 166 170 166
112 115 133 146 147 144 144 146 158 173 170 165 155 141 137 120 109 79 57 35 22 12 2 358 356 349 333 323 321 306 277 268 258 235 229 124 248 136 146 166 134 121 134
131 114 138 144 142 149 150 150 157 175 179 169 162 153 152 148 149 144 101 21 11 5 352 348 354 349 342 332 321 309 279 269 265 257 185 217 168 137 139 149 151 130 128
129 126 133 144 148 155 150 153 157 173 172 172 167 169 184 201 209 215 228 270 333 342 345 352 352 339 334 327 327 321 267 262 262 247 265 158 100 121 133 149 137 123 107
141 133 142 155 153 161 161 164 160 167 174 179 186 202 232 233 236 238 234 235 292 324 355 350 346 330 319 313 322 326 280 265 270 267 253 100 89 92 154 147 124 113 106
155 151 155 154 165 175 158 167 167 170 185 199 215 226 238 232 227 224 226 201 247 7 342 344 342 314 286 270 281 292 276 276 257 211 96 100 102 105 121 121 117 109 102
165 180 178 178 159 193 134 151 172 184 201 213 220 217 241 232 195 175 89 139 146 241 229 247 269 272 257 237 232 253 259 245 253 71 92 110 105 117 119 116 113 109 105
186 195 189 187 165 165 144 144 197 175 198 194 172 184 254 41 22 2 139 176 192 214 227 230 237 253 255 216 191 227 230 248 114 92 98 106 108 124 124 123 122 118 112
204 202 191 188 175 169 195 166 180 171 157 164 183 274 55 297 175 194 179 180 193 204 211 221 220 254 16 330 11 333 327 265 95 115 121 124 118 132 133 132 127 124 119
211 184 205 194 178 208 206 201 154 222 182 196 152 194 189 227 184 325 5 250 214 48 7 270 313 45 268 270 313 318 259 263 108 110 129 119 127 146 148 146 142 139 134
251 200 201 198 181 199 208 185 200 232 177 179 189 156 305 276 345 288 34 328 329 302 344 333 5 22 293 207 292 241 254 304 131 109 145 139 142 162 172 173 172 173 179
263 265 203 192 181 198 208 192 206 238 190 228 207 163 208 265 234 234 211 347 317 311 324 319 34 325 309 282 157 259 221 314 273 150 149 159 160 168 183 196 204 213 224
312 264 231 196 178 197 196 193 218 226 210 216 216 136 243 236 172 315 224 261 287 319 301 294 242 203 233 214 172 212 221 232 204 288 235 165 170 188 185 193 215 231 246
325 330 179 197 178 181 203 196 217 218 230 212 219 172 210 210 241 230 238 292 43 271 263 305 275 265 259 222 220 239 187 222 195 188 229 271 188 171 195 198 199 213 241
35 122 160 192 190 178 201 198 222 216 208 224 211 202 178 222 209 236 262 35 238 285 289 306 276 294 281 271 230 207 230 245 179 207 198 168 263 298 261 177 192 204 220
60 103 161 177 187 184 182 211 209 214 213 236 219 218 180 225 220 207 257 178 260 262 243 356 321 349 313 309 300 144 219 220 223 257 213 232 228 221 234 223 191 217 205
109 149 170 183 184 187 192 199 203 197 202 218 224 219 212 226 224 203 261 171 218 270 303 279 262 209 266 168 274 188 200 217 247 256 199 245 238 209 226 227 246 262 193
143 166 183 190 186 203 204 217 212 204 188 228 216 199 220 225 234 222 241 267 208 282 199 255 259 301 230 231 296 327 264 184 208 212 248 248 249 250 332 259 280 296 290
175 187 187 196 188 206 226 200 166 168 212 226 229 206 208 227 228 223 227 247 192 252 241 199 231 260 291 188 182 304 314 29 1 276 215 254 276 262 268 271 261 249 247
214 193 195 196 193 206 219 197 205 225 225 223 207 216 204 197 222 232 224 216 228 246 258 234 236 273 234 282 197 81 323 347 316 310 217 227 226 217 224 259 271 272 235
164 203 204 199 197 218 204 254 201 245 241 226 263 242 209 211 221 227 218 219 217 226 253 252 286 222 274 258 292 267 255 248 250 270 286 286 265 265 241 213 235 269 275
177 192 205 200 210 212 212 215 246 263 259 245 250 244 231 213 191 222 231 210 213 229 244 239 235 252 255 290 308 319 327 301 297 254 276 290 298 289 292 298 292 276 261